Location: Jackson Park
(37.2862°N, 79.9123°W)
Time: 02:09:07
(UTC+00:00)

SR - Pass Details

Date: 15 May 2026
Orbit: 567 x 853 km, 66.7° (Epoch: 11 June)

Event Time Altitude Azimuth Distance (km) Brightness Sun altitude
Rises 19:51:40 0° 346° (NNW) 3,373 ? 51.5°
Reaches altitude 10° 19:54:58 10° 5° (N) 2,465 ? 50.9°
Maximum altitude 19:58:45 18° 47° (NE) 1,984 ? 50.2°
Drops below altitude 10° 20:02:33 10° 88° (E) 2,479 ? 49.4°
Sets 20:05:51 0° 107° (ESE) 3,400 ? 48.8°
